Вернуться в каталог

SPARCS

АктивенНаукаSSO
NORAD 67386·PAYLOAD·🇺🇸 United States
Это название спутника еще не подтверждено официальными источниками.

Запущен Jan 11, 2026 с Vandenberg Space Force Base

Loading…

Ближайшие Пролёты (ближайшие 24 часа)

TLE

СвежийSource: Space-Track

Эпоха: Sep 14, 2026, 06:42 UTC

1 67386U 26004Z   26257.27919158  .00001286  00000-0  14220-3 0  9995
2 67386  97.8057 254.7349 0002721 158.5763 201.5568 14.89111937 36559

Отслеживайте SPARCS в реальном времени с AllMySat

Download on the App Store